NOAA 16 DEB, 41053

Orbit data source: Space-Track

NOAA 16 DEB, 41053 is space debris in SSO originally from a launch on Thu, 21 Sep 2000 UTC launched from the Air Force Western Test Range (AFWTR). Debris objects in space refer to the collection of defunct objects orbiting the Earth. Examples of debris include non-operational satellites, rocket bodies, and fragments generated from explosions, collisions, or faulty payload assembly.

Loading next visibility...
Identifier
41053, 2000-055L
Orbit
SSO
Country
Flag of USUS
Related business
Manufacturer
Unknown
Mission
Spacecraft
Bus & Motor
Unknown
Mass
Unknown
Launch date (UTC)
2000-09-21 (25 years ago)
Launch vehicle
Unknown
Launch site
Air Force Western Test Range (AFWTR)
Object type
Payload
Rocket body
Debris
Shape & HBR
Unknown shape, 0.2 m
Radar Cross Section
Small (<0.1 m²)

Expand to show TLE details & history
Last TLE update: 17 hours ago

TLE from 17 hours ago
0 NOAA 16 DEB
1 41053U 00055L   26071.53841688  .00007977  00000-0  19163-2 0  9994
2 41053  99.0025 287.7072 0025039  39.4944 320.8069 14.53477376536329
Epoch: 2026-03-12T12:55Z
TLE epoch observation values (Epoch: 2026-03-12T12:55:19.218Z)
Latitude
-0.00001°
Longitude
-76.30974°
Altitude
703.516 km
Speed
7.511 km/s
True Right ascension
19h 10m 49s
True Declination
0° 00' 00"
Sunlit
Object was in daylight at epoch
Visualization orbit readout
Latitude
Unknown
Longitude
Unknown
Altitude
Unknown
Speed
Unknown
Apparent Right ascension
Unknown
Apparent Declination
Unknown
Sunlit
N/A
Visualization observer readout
Local Sidereal Time
10:31:19
Azimuth
Unknown
Elevation
Unknown
Doppler factor
Unknown
Orbital elements
Apogee altitude
729.194 km
Perigee altitude
693.691 km
Semi-major axis
7,089.579 km
Eccentricity
0.0025
Inclination
99.0025°
RAAN
287.7072°
Arg. of periapsis
39.4944°
True anomaly
320.62514°
Mean anomaly
320.8069°
Eccentric anomaly
320.71606°
Mean motion
3.6359 °/min
Orbital period
99.01 mins
BSTAR
0.0019163
Loading maneuver chart data...
Computing Atmospheric mass density...
Loading historical data...
Loading historical data...
Loading historical data...
Loading historical data...
Loading historical data...
Loading historical data...
Loading historical data...

Documentation

Showing up to 5 results
|